Tracking 22836 objects as of 17-Apr-2021
HD Live streaming from Space Station
objects crossing your sky now

STARLINK-1757

Track STARLINK-1757 now!
10-day predictions
STARLINK-1757 is classified as:


NORAD ID: 46339
Int'l Code: 2020-062Q
Perigee: 561.0 km
Apogee: 573.6 km
Inclination: 53.1 °
Period: 95.9 minutes
Semi major axis: 6938 km
RCS: Unknown
Launch date: September 3, 2020
Source: United States (US)
Launch site: AIR FORCE EASTERN TEST RANGE (AFETR)
aabbcc
Your satellite tracking list
Your tracking list is empty




NASA's NSSDC Master Catalog

Two Line Element Set (TLE):
1 46339U 20062Q   21107.48117570  .00000829  00000-0  82745-4 0  9998
2 46339  53.0588 100.2079 0009062 300.2548  59.7542 15.02178566 35218
Source of the keplerian elements: AFSPC